Regional Weather Roundup
Issued by NWS Green Bay, WI

Home | Current Version | Previous Version | Text Only | Print | Product List | Glossary On
Versions: 1 2 3 4 5 6 7 8 9 10 11 12 13 14 15 16 17 18 19 20 21 22 23 24 25 26 27 28 29 30 31 32 33 34 35 36 37 38 39 40 41 42 43 44 45 46 47 48 49 50
000
ASUS43 KGRB 231810
RWRGRB

NORTH-CENTRAL AND NORTHEAST WISCONSIN REGIONAL WEATHER ROUNDUP
NATIONAL WEATHER SERVICE GREEN BAY WI
100 PM CDT WED APR 23 2014

WIZ005-009-010>012-018-019-231900-
NORTH CENTRAL WISCONSIN

CITY           SKY/WX    TMP DP  RH WIND       PRES   REMARKS
IRONWOOD         N/A     50  25  37 SE5       30.09F
MANITOWISH WTR SUNNY     48  22  36 S6        30.12F
ARBOR VITAE    SUNNY     52  22  30 SE6       30.12F
EAGLE RIVER    PTSUNNY   49  16  26 E6        30.12F
LAND O LAKES   PTSUNNY   49  18  29 SE5       30.13F
RHINELANDER    SUNNY     48  21  34 E7        30.13F
PHILLIPS         N/A     50  25  37 SE6       30.12F
ANTIGO         MOSUNNY   47  23  38 SE8       30.15S
TOMAHAWK       SUNNY     52  23  32 CALM      30.12F
MERRILL        SUNNY     50  24  36 SW5       30.13F
$$

WIZ013-073-231900-
NORTHEAST WISCONSIN

CITY           SKY/WX    TMP DP  RH WIND       PRES   REMARKS
IRON MOUNTAIN  MOSUNNY   49  16  26 CALM      30.14S
MARINETTE      MOSUNNY   43  19  39 E9        30.19F
OCONTO         PTSUNNY   44  17  33 E6        30.19F
$$

WIZ017-030-035>037-045-231900-
CENTRAL WISCONSIN

CITY           SKY/WX    TMP DP  RH WIND       PRES   REMARKS
MEDFORD        NOT AVBL
WAUSAU           N/A     48  22  35 SW6       30.13F
MOSINEE        SUNNY     46  23  39 SE8       30.16F
MARSHFIELD       N/A     49  24  37 SE12      30.13F
WISC RAPIDS      N/A     50  21  32 E9        30.16F
STEVENS POINT    N/A     46  22  37 SE6       30.16F
WAUPACA        PTSUNNY   52  21  30 E6        30.18F
SHAWANO        MOSUNNY   48  24  39 N5        30.18S
CLINTONVILLE   MOSUNNY   48  23  37 SE6       30.18S
$$

WIZ038-039-048-051-231900-
FOX VALLEY

CITY           SKY/WX    TMP DP  RH WIND       PRES   REMARKS
NWS GREEN BAY  MOSUNNY   47  24  40 NE10      30.19F
APPLETON       PTSUNNY   46  21  36 CALM      30.18S
OSHKOSH        PTSUNNY   47  23  38 E5        30.18S
FOND DU LAC    PTSUNNY   51  27  39 NE7       30.17S
$$

WIZ022-050-052-231900-
EAST CENTRAL WISCONSIN

CITY           SKY/WX    TMP DP  RH WIND       PRES   REMARKS
STURGEON BAY   PTSUNNY   45  19  36 N6        30.19F
MANITOWOC      PTSUNNY   46  22  38 N9        30.19F
SHEBOYGAN      PTSUNNY   45  24  43 E7        30.19R
$$

LMZ563-521-522-541>543-231900-
LAKESHORE

STATION/POSITION TIME  TEMP    WIND        PRES    VSBY  WAVE
                       AIR SEA DIR/SP/G                  HT/PER
                 (UTC) (F)     (DEG/KT/KT) (MB)    (MI)  (FT/S)
SHEBOYGAN LKSHOR 1800   36      40/  6/  7 1023.4S
KEWAUNEE LKSHORE 1800   38      50/  5/  9 1023.1R
NORTHPORT PIER   1800   38     110/  2/  3 1022.7S
SISTER BAY LKSHO 1800          310/  7/  9   N/A
MENOMINEE LKSHOR 1800   36      90/  4/  5 1023.0F
$$



USA.gov is the U.S. government's official web portal to all federal, state and local government web resources and services.